Weather observations for the past three days for
Columbus, Ohio State University Airport
Metric (Imperial)
Date Time (edt) Wind (kph) Vis. (km) Weather Sky Cond. Temperature (ºC) Relative Humidity Wind Chill (°C) Heat Index (°C) Pressure Precipitation (cm)
Air Dwpt 6 hour altimeter (cm) sea level (mb) 1 hr 3 hr 6 hr
Max. Min.
25 00:53 S 9 16.09 Fair CLR 22.2 16.7 71% 75.82 1010.1
24 23:53 S 9 16.09 Fair CLR 22.8 16.1 66% 75.84 1010.2
24 22:53 S 6 16.09 Fair CLR 23.9 15.6 60% 25 75.87 1010.6
24 21:53 S 7 16.09 Fair CLR 24.4 15 56% 26 75.82 1009.9
24 20:53 S 7 16.09 Fair CLR 25.6 15 52% 26 75.79 1009.9
24 19:53 SW 15 16.09 Fair CLR 27.2 15.6 30 27.2 49% 28 75.82 1010.0
24 18:53 SW 13 16.09 Mostly Cloudy SCT065 SCT085 BKN110 28.3 15 44% 28 75.79 1009.9
24 17:53 S 15 16.09 Mostly Cloudy SCT065 BKN080 BKN110 27.8 16.7 51% 28 75.77 1009.5
24 16:53 SW 19 16.09 Partly Cloudy SCT060 29.4 16.1 45% 30 75.82 1009.8
24 15:53 S 11 G 31 16.09 Partly Cloudy FEW060 SCT075 29.4 15.6 43% 29 75.87 1010.6
24 14:53 SW 19 16.09 A Few Clouds FEW049 FEW075 28.9 16.1 46% 29 75.9 1011.2
24 13:53 SW 11 16.09 Partly Cloudy SCT046 28.9 16.1 28.9 21.1 46% 29 75.95 1011.8
24 12:53 SE 15 16.09 A Few Clouds FEW043 27.8 16.7 51% 28 75.95 1011.8
24 11:53 Vrbl 11 16.09 A Few Clouds FEW046 26.1 17.2 58% 27 76 1012.4
24 10:53 Vrbl 6 16.09 Mostly Cloudy BKN060 24.4 17.8 67% 25 76.02 1012.9
24 09:53 Calm 16.09 Partly Cloudy SCT055 23.9 17.8 69% 25 76.05 1013.1
24 08:53 Calm 14.48 Fair CLR 22.2 17.8 76% 76.05 1013.2
24 07:53 Calm 11.27 Fair CLR 21.1 17.8 21.1 17.8 82% 76 1012.5
24 06:53 Calm 9.66 Fog/Mist CLR 17.8 16.1 90% 75.97 1012.1
24 05:53 W 6 9.66 Fog/Mist CLR 17.8 16.7 93% 75.95 1012.0
24 04:53 W 7 16.09 Fair CLR 18.9 16.7 87% 75.97 1012.0
24 03:53 W 9 16.09 Fair CLR 19.4 17.2 87% 75.97 1012.2
24 02:53 SW 6 16.09 Fair CLR 20 17.2 84% 75.97 1012.1
24 01:53 SW 9 16.09 Fair CLR 20.6 17.8 24.4 20.6 84% 76 1012.4
24 00:53 S 7 16.09 Fair CLR 21.1 17.8 82% 76 1012.4
23 23:53 SW 6 16.09 Fair CLR 21.7 17.8 79% 76 1012.5
23 22:53 S 11 16.09 Overcast BKN040 BKN048 OVC055 22.8 17.8 74% 76.02 1012.7
23 21:53 SE 11 16.09 A Few Clouds FEW055 22.8 17.8 74% 75.97 1012.2
23 20:53 S 11 16.09 Mostly Cloudy FEW040 SCT047 BKN055 23.3 17.2 69% 75.97 1012.0
23 19:53 S 26 G 35 16.09 Mostly Cloudy BKN050 BKN070 25 16.7 27.2 25 60% 26 75.95 1011.7
23 18:53 S 11 16.09 Mostly Cloudy FEW050 BKN070 BKN120 26.1 16.1 54% 27 75.92 1011.5
23 17:53 SW 15 16.09 Mostly Cloudy FEW050 BKN060 26.7 15 49% 27 75.95 1011.8
23 16:53 SW 15 16.09 Mostly Cloudy BKN060 26.7 15 49% 27 75.97 1012.2
23 15:53 SW 15 16.09 Mostly Cloudy SCT049 BKN065 26.7 15 49% 27 76.02 1012.8
23 14:53 SW 11 16.09 Partly Cloudy FEW055 SCT120 26.1 13.9 47% 27 76.07 1013.4
23 13:53 SE 9 16.09 Fair CLR 26.1 13.9 26.7 20 47% 27 76.1 1013.7
23 12:53 Calm 16.09 Partly Cloudy SCT050 25 12.8 47% 26 76.15 1014.4
23 11:53 Calm 16.09 Fair CLR 25 10 39% 26 76.17 1014.9
23 10:53 Vrbl 7 16.09 Fair CLR 23.9 9.4 40% 25 76.2 1015.2
23 09:53 NE 7 16.09 Fair CLR 23.9 11.7 46% 25 76.2 1015.1
23 08:53 NE 7 16.09 Fair CLR 22.2 15 64% 76.17 1014.9
23 07:53 Calm 16.09 Fair CLR 20 17.2 20.6 16.7 84% 76.2 1015.1
23 06:53 Calm 11.27 Fair CLR 17.8 16.1 90% 76.15 1014.5
23 05:53 NW 6 16.09 Fair CLR 17.2 15.6 90% 76.1 1013.8
23 04:53 Calm 9.66 Fog/Mist SCT120 17.2 15.6 90% 76.1 1013.8
23 03:53 Calm 16.09 Fair CLR 18.3 16.1 87% 76.05 1013.0
23 02:53 SW 11 16.09 Fair CLR 20 16.7 81% 76.02 1012.8
23 01:53 SW 9 16.09 Fair CLR 20.6 17.2 26.7 20 81% 76 1012.4 0.13
23 00:53 SW 9 16.09 Partly Cloudy FEW055 SCT120 20.6 16.1 76% 75.97 1012.3
22 23:53 SW 13 16.09 A Few Clouds FEW120 21.7 16.7 73% 75.95 1011.7
22 22:53 W 13 16.09 A Few Clouds FEW023 23.9 20 79% 24 75.92 1011.4 0.13
22 21:53 SW 22 G 37 16.09 Light Rain FEW035 SCT060 BKN070 24.4 20.6 79% 25 75.87 1010.6 0.13
22 20:53 S 26 16.09 Mostly Cloudy SCT028 BKN035 26.1 20 69% 27 75.82 1009.9
22 19:53 S 22 16.09 Fair CLR 26.7 20 29.4 26.1 67% 28 75.69 1008.4
22 18:53 S 19 G 39 16.09 Partly Cloudy SCT031 27.2 20 65% 29 75.77 1009.5
22 17:53 S 30 G 41 16.09 Partly Cloudy FEW045 SCT055 SCT065 28.3 19.4 59% 30 75.77 1009.5
22 16:53 S 28 G 39 16.09 Partly Cloudy FEW043 SCT050 28.3 18.9 57% 30 75.72 1008.7
22 15:53 S 24 G 43 16.09 Partly Cloudy FEW038 SCT048 28.3 19.4 59% 30 75.82 1010.1
22 14:53 SW 33 G 44 16.09 Mostly Cloudy and Breezy SCT030 BKN042 BKN050 27.2 18.9 61% 28 75.87 1010.6
22 13:53 SW 24 G 54 16.09 Overcast BKN034 OVC060 26.7 18.3 27.8 21.7 60% 28 75.87 1010.6 0.03
22 12:53 SW 28 G 46 16.09 Mostly Cloudy SCT037 BKN048 BKN070 26.7 18.9 62% 28 75.87 1010.7
22 11:53 S 22 G 41 16.09 Overcast BKN040 BKN048 OVC055 25 18.3 66% 26 75.92 1011.3
22 10:53 S 22 16.09 Fair CLR 22.8 18.3 76% 75.92 1011.5 0.03
22 09:53 S 19 16.09 Light Rain BKN110 22.2 17.8 76% 75.9 1010.9 0.03
22 08:53 S 15 16.09 Light Rain BKN100 BKN120 22.2 17.2 73% 75.92 1011.3
22 07:53 S 15 16.09 Fair CLR 23.3 16.7 23.9 22.2 67% 75.84 1010.1
22 06:53 S 19 16.09 Fair CLR 22.8 16.1 66% 75.84 1010.1
22 05:53 S 13 16.09 Fair CLR 22.2 16.1 68% 75.84 1010.1
22 04:53 S 15 16.09 Fair CLR 22.8 16.1 66% 75.82 1009.7
22 03:53 S 15 16.09 Fair CLR 22.8 16.7 69% 75.84 1010.2
22 02:53 S 13 16.09 Fair CLR 22.8 17.2 71% 75.87 1010.5
22 01:53 S 13 16.09 Fair CLR 23.9 17.2 28.9 23.9 66% 25 75.87 1010.5
Date Time (edt) Wind (kph) Vis. (km) Weather Sky Cond. Air Dwpt Max. Min. Relative Humidity Wind Chill (°C) Heat Index (°C) altimeter (cm) sea level (mb) 1 hr 3 hr 6 hr
6 hour
Temperature (ºC) Pressure Precipitation (cm)